Montauk, NY

12:55 PM EST on December 12, 2017 (GMT -0500)
Montauk

Weather History for KMTP - February, 2014

Change the Weather History Date:

Friday, February 7, 2014

  Actual Average (KHTO) Record (KHTO)
Temperature  
Mean Temperature 29 °F -  
Max Temperature 30 °F 35 °F 51 °F (1946)
Min Temperature 28 °F 21 °F -5 °F (1934)
Degree Days  
Heating Degree Days 36    
Moisture  
Dew Point 16 °F    
Average Humidity 59    
Maximum Humidity 69    
Minimum Humidity 51    
Precipitation  
Precipitation 0.00 in - - ()
Sea Level Pressure  
Sea Level Pressure 30.25 in    
Wind  
Wind Speed 9 mph (West)    
Max Wind Speed 16 mph    
Max Gust Speed 22 mph    
Averages and records for this station are not official NWS values.
T = Trace of Precipitation, MM = Missing Value Source: NWS Daily Summary

Daily Weather History Graph

Daily Weather History Graph

Search for Another Location

Airport or City:

Trip Planner

Search our weather history database for the weather conditions in past years. The results will help you decide how hot, cold, wet, or windy it might be!

Date:

Astronomy

Feb. 07, 2014 Rise Set
Actual Time 6:52 AM EST 5:12 PM EST
Civil Twilight 6:23 AM EST 5:40 PM EST
Nautical Twilight 5:50 AM EST 6:13 PM EST
Astronomical Twilight 5:18 AM EST 6:45 PM EST
Moon 11:20 AM EST (2/7) 1:05 AM EST (2/7)
Length of Visible Light 11h 17m
Length of Day
10h 20m
First Quarter, 59% of the Moon is Illuminated
Feb 7
First Quarter
Feb 14
Full
Feb 22
Last Quarter
Mar 1
New
Mar 8
First Quarter

Hourly Weather History & Observations

Time (EST) Temp. Windchill Dew Point Humidity Pressure Visibility Wind Dir Wind Speed Gust Speed Precip Events Conditions
12:54 AM 28.9 °F 19.8 °F 18.0 °F 64% 30.24 in - West 10.4 mph - N/A   Unknown
1:54 AM 28.0 °F 20.0 °F 19.0 °F 69% 30.23 in - West 8.1 mph - N/A   Unknown
2:54 AM 28.9 °F 21.9 °F 18.0 °F 64% 30.22 in - West 6.9 mph - N/A   Unknown
3:54 AM 28.0 °F 21.7 °F 19.0 °F 69% 30.24 in - WSW 5.8 mph - N/A   Unknown
4:54 AM 28.0 °F 20.8 °F 19.0 °F 69% 30.25 in - West 6.9 mph - N/A   Unknown
5:54 AM 28.0 °F 20.0 °F 16.0 °F 61% 30.25 in - West 8.1 mph - N/A   Unknown
6:54 AM 28.0 °F 20.0 °F 17.1 °F 63% 30.26 in - West 8.1 mph - N/A   Unknown
7:54 AM 28.0 °F 18.6 °F 17.1 °F 63% 30.29 in - West 10.4 mph - N/A   Unknown
8:54 AM 28.0 °F 18.1 °F 15.1 °F 58% 30.31 in - West 11.5 mph 18.4 mph N/A   Unknown
9:54 AM 28.0 °F 18.6 °F 14.0 °F 56% 30.31 in - West 10.4 mph 20.7 mph N/A   Unknown
10:54 AM 28.9 °F 18.6 °F 15.1 °F 56% 30.30 in - West 12.7 mph 21.9 mph N/A   Unknown
11:54 AM 30.0 °F 20.5 °F 14.0 °F 51% 30.27 in - West 11.5 mph 21.9 mph N/A   Unknown
12:54 PM 30.0 °F 20.5 °F 15.1 °F 54% 30.24 in - West 11.5 mph 20.7 mph N/A   Unknown
1:54 PM 30.0 °F 21.7 °F 15.1 °F 54% 30.23 in - West 9.2 mph 18.4 mph N/A   Unknown
2:54 PM 30.0 °F 21.7 °F 15.1 °F 54% 30.21 in - WSW 9.2 mph - N/A   Unknown
3:54 PM 30.9 °F 21.7 °F 15.1 °F 52% 30.23 in - West 11.5 mph - N/A   Unknown
4:54 PM 30.0 °F 24.1 °F 14.0 °F 51% 30.22 in - WSW 5.8 mph - N/A   Unknown
5:54 PM 30.0 °F 24.1 °F 14.0 °F 51% 30.24 in - SSW 5.8 mph - N/A   Unknown
6:54 PM 30.0 °F 23.2 °F 14.0 °F 51% 30.25 in - SW 6.9 mph - N/A   Unknown
7:54 PM 30.9 °F 21.2 °F 19.0 °F 61% 30.26 in - WSW 12.7 mph 18.4 mph N/A   Unknown
8:54 PM 30.9 °F 22.8 °F 18.0 °F 59% 30.26 in - WSW 9.2 mph - N/A   Unknown
9:54 PM 30.9 °F 22.2 °F 18.0 °F 59% 30.27 in - WSW 10.4 mph 21.9 mph N/A   Unknown
10:54 PM 30.9 °F 19.8 °F 17.1 °F 57% 30.27 in - West 16.1 mph 21.9 mph N/A   Unknown
11:54 PM 30.9 °F 21.2 °F 18.0 °F 59% 30.27 in - WSW 12.7 mph 19.6 mph N/A   Unknown